Location: Rounton
(54.4000°N, 1.3500°W)
Time: 02:37:31
(UTC+01:00)

FENGYUN 1C DEB - Pass Details

Date: 01 July 2022
Orbit: 737 x 860 km, 99.3° (Epoch: 14 August)

Event Time Altitude Azimuth Distance (km) Brightness Sun altitude
Exits shadow 22:41:27 - 176° (S) 2,854 ? -6.3°
Reaches altitude 10° 22:42:54 10° 179° (S) 2,274 ? -6.4°
Maximum altitude 22:47:48 55° 257° (WSW) 890 ? -6.8°
Drops below altitude 10° 22:52:39 10° 336° (NNW) 2,258 ? -7.2°
Sets 22:54:59 0° 341° (NNW) 3,185 ? -7.3°
